TimeEST,TemperatureF,Dew PointF,Humidity,Sea Level PressureIn,VisibilityMPH,Wind Direction,Wind SpeedMPH,Gust SpeedMPH,PrecipitationIn,Events,Conditions,WindDirDegrees,DateUTC
12:04 AM,64.4,60.8,88,30.00,10.0,North,10.4,-,0.00,Rain,Light Rain,360,2013-02-15 05:04:00
12:53 AM,64.9,62.1,90,29.98,10.0,NNE,5.8,-,0.00,,Overcast,20,2013-02-15 05:53:00
1:53 AM,68.0,62.1,81,29.97,10.0,NE,6.9,-,0.00,Rain,Light Rain,40,2013-02-15 06:53:00
2:53 AM,66.9,63.0,87,29.96,4.0,NE,8.1,-,0.01,Rain,Light Rain,50,2013-02-15 07:53:00
3:39 AM,66.2,64.4,94,29.96,8.0,ENE,4.6,-,0.03,Rain,Rain,60,2013-02-15 08:39:00
3:53 AM,66.9,64.0,90,29.96,10.0,NNE,5.8,-,0.03,Rain,Light Rain,30,2013-02-15 08:53:00
4:06 AM,66.2,64.4,94,29.96,10.0,NE,9.2,-,0.01,Rain,Light Rain,50,2013-02-15 09:06:00
4:26 AM,66.2,64.4,94,29.96,10.0,ENE,9.2,-,0.03,Rain,Light Rain,70,2013-02-15 09:26:00
4:53 AM,66.9,64.9,93,29.98,10.0,NNE,5.8,-,0.03,Rain,Light Rain,20,2013-02-15 09:53:00
5:53 AM,66.0,64.0,93,29.98,8.0,ENE,6.9,-,0.01,Rain,Light Rain,70,2013-02-15 10:53:00
6:53 AM,66.9,64.0,90,30.00,10.0,NE,5.8,-,0.00,Rain,Light Rain,50,2013-02-15 11:53:00
7:53 AM,66.9,64.0,90,29.99,10.0,East,4.6,-,0.00,Rain,Light Rain,90,2013-02-15 12:53:00
8:53 AM,69.1,64.9,87,30.01,10.0,Calm,Calm,-,0.00,Rain,Light Rain,0,2013-02-15 13:53:00
9:53 AM,71.1,64.0,78,30.01,10.0,ENE,3.5,-,0.00,,Overcast,60,2013-02-15 14:53:00
10:33 AM,71.6,64.4,78,30.03,10.0,ENE,3.5,-,N/A,,Mostly Cloudy,60,2013-02-15 15:33:00
10:53 AM,72.0,64.0,76,30.02,10.0,Calm,Calm,-,N/A,,Overcast,0,2013-02-15 15:53:00
11:53 AM,71.1,64.0,78,30.02,10.0,NNW,6.9,-,0.00,Rain,Light Rain,330,2013-02-15 16:53:00
12:48 PM,66.2,64.4,94,30.01,10.0,NNW,11.5,-,0.03,Rain,Light Rain,340,2013-02-15 17:48:00
12:53 PM,66.9,64.9,93,30.01,10.0,NNW,10.4,-,0.03,Rain,Light Rain,330,2013-02-15 17:53:00
1:38 PM,68.0,64.4,88,29.99,10.0,NW,9.2,-,0.00,Rain,Light Rain,320,2013-02-15 18:38:00
1:53 PM,68.0,64.0,87,29.97,10.0,NNW,6.9,21.9,0.00,,Overcast,330,2013-02-15 18:53:00
2:20 PM,68.0,64.4,88,29.97,10.0,NNW,5.8,-,0.00,Rain,Light Rain,330,2013-02-15 19:20:00
2:47 PM,68.0,64.4,88,29.97,5.0,NNW,4.6,-,0.00,Rain,Light Rain,330,2013-02-15 19:47:00
2:53 PM,68.0,64.0,87,29.97,5.0,NW,5.8,-,0.00,Rain,Light Rain,310,2013-02-15 19:53:00
3:41 PM,66.2,64.4,94,29.96,10.0,NNW,5.8,-,0.02,Rain,Light Rain,340,2013-02-15 20:41:00
3:53 PM,66.9,64.0,90,29.96,10.0,NW,4.6,-,0.03,Rain,Light Rain,320,2013-02-15 20:53:00
4:44 PM,66.2,64.4,94,29.97,10.0,NW,5.8,-,0.04,Rain,Light Rain,320,2013-02-15 21:44:00
4:53 PM,66.0,64.0,93,29.96,10.0,NW,8.1,-,0.04,Rain,Light Rain,320,2013-02-15 21:53:00
5:15 PM,64.4,62.6,94,29.97,10.0,NW,6.9,-,0.00,Rain,Light Rain,320,2013-02-15 22:15:00
5:53 PM,64.9,63.0,93,29.97,10.0,NNW,4.6,-,0.00,Rain,Light Rain,330,2013-02-15 22:53:00
6:10 PM,64.4,62.6,94,29.97,10.0,North,3.5,-,0.00,,Overcast,350,2013-02-15 23:10:00
6:53 PM,64.9,63.0,93,29.95,10.0,Calm,Calm,-,0.00,,Overcast,0,2013-02-15 23:53:00
7:53 PM,64.9,63.0,93,29.94,10.0,North,5.8,-,0.00,Rain,Light Rain,10,2013-02-16 00:53:00
8:53 PM,64.9,63.0,93,29.96,10.0,Calm,Calm,-,0.00,Rain,Light Rain,0,2013-02-16 01:53:00
9:53 PM,64.0,63.0,96,29.97,10.0,NW,3.5,-,0.00,,Overcast,320,2013-02-16 02:53:00
10:53 PM,64.0,62.1,93,29.96,10.0,NW,4.6,-,N/A,,Mostly Cloudy,320,2013-02-16 03:53:00
11:53 PM,64.0,62.1,93,29.94,10.0,NW,4.6,-,N/A,,Mostly Cloudy,320,2013-02-16 04:53:00